[[{"header":{"parameterUnit":"m.s-1","parameterCategory":1,"la1":30.2991,"la2":30.254,"lo1":-89.0895,"lo2":-89.0444,"dy":0.0017,"dx":0.0017,"nx":28,"ny":28,"refTime":"2025-04-06T03:00:00:Z","depth":0,"parameterNumber":2,"parameterNumberName":"U-component_of_WINDS"},"data":[0,0,0,0,0,0,0,0,0,0,0,0,0,0,0,0,0,0,0,0,0,0,0,0,0,0,0,0,0,0,0,0,0,0,0,0,0,0,0,0,0,0,0,0,0,0,0,0,0,0,0,0,0,0,0,0,0,0,1.1824,1.1824,0,1.1896,1.1897,1.1898,1.1899,1.1898,1.1897,1.1896,1.1971,1.1974,1.1977,0,0,0,0,0,0,0,0,0,0,0,0,0,1.1688,1.1691,1.1824,1.1825,1.1825,1.1896,1.1897,1.1898,1.1899,1.1898,1.1897,1.1896,1.197,1.1973,1.1977,0,0,0,0,0,0,0,0,0,0,0,0,0,1.1752,1.1692,1.1823,1.1835,1.1836,1.1896,1.1897,1.1898,1.1899,1.1898,1.1897,1.1895,1.1969,1.1973,1.1977,1.2031,0,0,1.199,1.1992,0,0,0,0,0,0,0,0,1.1749,1.1757,1.1832,1.1834,1.1836,1.1887,1.1877,1.1943,1.19,1.1875,1.1896,1.1895,1.1944,1.195,1.1967,1.2034,1.2037,1.1991,1.1993,1.1995,1.1996,0,0,0,0,0,0,0,1.1744,1.1754,1.1852,1.1833,1.1836,1.1836,1.1844,1.1889,1.1917,1.1877,1.1878,1.1886,1.1945,1.1963,1.1969,1.2039,1.1991,1.1994,1.1997,1.1999,1.2155,1.2156,0,0,0,0,0,0,1.1738,1.1751,1.185,1.1854,1.1788,1.184,1.1849,1.1872,1.1916,1.1921,1.1887,1.1886,1.1956,1.1964,1.1971,1.2038,1.1995,1.1999,1.2001,1.2153,1.2155,1.2157,0,0,0,0,0,0,1.1735,1.1746,1.1847,1.1803,1.1816,1.1844,1.187,1.1874,1.1892,1.1924,1.1929,1.19,1.1956,1.1965,1.2016,1.204,1.2001,1.2005,1.2151,1.2154,1.2156,1.217,0,0,0,0,0,0,1.1731,1.1745,1.1765,1.1803,1.1818,1.189,1.1872,1.1877,1.1899,1.1898,1.1937,1.1942,1.1955,1.201,1.2021,1.2046,1.2008,1.2149,1.2153,1.2155,1.2168,1.2173,1.2177,0,0,0,0,0,1.1726,1.1766,1.1766,1.1778,1.1844,1.1892,1.19,1.1914,1.1901,1.1922,1.1943,1.1941,1.2036,1.2015,1.2027,1.2054,1.2148,1.2152,1.2155,1.2166,1.2172,1.2177,0,0,0,0,0,0,1.173,1.1771,1.1772,1.1826,1.1855,1.1892,1.1918,1.192,1.1954,1.1951,1.1967,1.1976,1.2027,1.2046,1.2021,1.2109,1.2091,1.2097,1.2095,1.2101,1.2105,1.21,1.2012,0,0,0,0,0,1.1738,1.1773,1.1807,1.1851,1.1866,1.189,1.1911,1.1919,1.1951,1.1963,1.1987,1.2018,1.2055,1.2079,1.2114,1.2171,1.218,1.2195,1.22,1.2204,1.2209,1.2241,1.2249,1.2169,1.2169,1.2169,0,0,1.1753,1.178,1.1801,1.1853,1.1877,1.1913,1.19,1.1939,1.1967,1.1969,1.2019,1.2038,1.2073,1.2127,1.2152,1.2144,1.2233,1.2208,1.2211,1.2214,1.2246,1.2253,1.226,1.2171,1.2171,1.2171,0,0,1.18,1.1823,1.1863,1.1888,1.1924,1.194,1.1949,1.1986,1.1999,1.2049,1.2052,1.2086,1.2148,1.2174,1.2195,1.2254,1.2254,1.2265,1.2289,1.2321,1.2327,1.2333,1.2355,1.2362,1.227,1.227,1.227,0,1.1814,1.1869,1.1883,1.1923,1.1946,1.195,1.1992,1.2015,1.2061,1.2077,1.2068,1.2148,1.2172,1.2233,1.2247,1.2264,1.2276,1.226,1.2325,1.2331,1.2337,1.2357,1.2365,1.2271,1.2271,1.2271,1.2271,0,1.1886,1.1924,1.1952,1.1997,1.2023,1.2064,1.2085,1.211,1.2116,1.2133,1.2185,1.2215,1.2257,1.2272,1.2278,1.2334,1.2328,1.2322,1.2304,1.2345,1.2365,1.2373,1.2273,1.2272,1.2272,1.2272,0,0,1.1936,1.199,1.2,1.2021,1.2062,1.2092,1.2133,1.2175,1.2197,1.2229,1.2264,1.2318,1.2313,1.2337,1.2347,1.2374,1.242,1.2365,1.2366,1.2374,1.2485,1.249,1.2499,1.2421,1.2422,1.2423,1.2482,0,1.1988,1.2061,1.2075,1.2139,1.2175,1.218,1.2216,1.2246,1.2263,1.2297,1.2317,1.2355,1.2344,1.2359,1.2387,1.2408,1.2442,1.2404,1.2454,1.2456,1.2446,1.2509,1.2514,1.2568,1.249,1.2491,1.2492,0,1.2058,1.2092,1.2159,1.2197,1.2213,1.2245,1.2285,1.2317,1.2351,1.2362,1.239,1.2397,1.2441,1.2421,1.2482,1.2456,1.2478,1.2491,1.2494,1.2499,1.2477,1.2517,1.2585,1.2594,1.2504,1.2503,1.2503,0,1.2089,1.2152,1.22,1.2218,1.2263,1.2286,1.2306,1.2339,1.2363,1.2399,1.2415,1.2455,1.2477,1.2508,1.2526,1.2509,1.2586,1.2567,1.2597,1.2597,1.2613,1.2612,1.2686,1.2626,1.2626,1.2626,1.2625,0,1.2145,1.2186,1.2215,1.2245,1.2292,1.2309,1.2354,1.2374,1.2404,1.2438,1.2445,1.2478,1.2499,1.2535,1.2549,1.2599,1.2608,1.2619,1.2622,1.2619,1.2617,1.2633,1.263,1.2628,1.2627,1.2627,1.2626,0,1.2187,1.2209,1.2262,1.2301,1.2312,1.2344,1.2378,1.2408,1.2426,1.2469,1.2481,1.2509,1.2552,1.2573,1.2625,1.2635,1.2691,1.2692,1.268,1.2681,1.271,1.2707,1.2797,1.2811,1.2741,1.2741,1.2742,0,1.2222,1.2254,1.2296,1.232,1.2341,1.2378,1.2404,1.2422,1.2449,1.2491,1.2516,1.2559,1.2594,1.2662,1.2688,1.2729,1.2731,1.276,1.2737,1.2733,1.2733,1.2731,1.2734,1.2764,1.2765,1.2765,1.2766,0,1.2282,1.2291,1.2327,1.2367,1.2397,1.243,1.2462,1.2481,1.2505,1.2535,1.2578,1.2606,1.266,1.2703,1.2746,1.2767,1.2771,1.2773,1.2782,1.2779,1.277,1.2776,1.2691,1.2771,1.277,1.277,1.2769,1.2769,1.2322,1.2351,1.2386,1.2426,1.2452,1.2483,1.2513,1.2535,1.2572,1.2618,1.2627,1.2673,1.2709,1.2767,1.279,1.2827,1.2821,1.2834,1.2837,1.284,1.2842,1.2764,1.2835,1.2835,1.2835,1.2834,1.2834,0,1.2382,1.2405,1.2442,1.2487,1.252,1.252,1.2557,1.2584,1.2625,1.2657,1.2692,1.2743,1.2785,1.2815,1.2858,1.2882,1.2885,1.2893,1.2892,1.2897,1.2845,1.2833,1.289,1.289,1.289,1.289,1.289,1.289,1.2417,1.2467,1.2481,1.2544,1.2567,1.2613,1.2633,1.2662,1.2688,1.2745,1.278,1.2799,1.2831,1.2877,1.2916,1.2923,1.2939,1.2947,1.2955,1.2906,1.29,1.2895,1.2884,1.295,1.2951,1.3004,1.3005,1.3005]},{"header":{"parameterUnit":"m.s-1","parameterCategory":1,"la1":30.2991,"la2":30.254,"lo1":-89.0895,"lo2":-89.0444,"dy":0.0017,"dx":0.0017,"nx":28,"ny":28,"refTime":"2025-04-06T03:00:00:Z","depth":0,"parameterNumber":3,"parameterNumberName":"V-component_of_WINDS"},"data":[0,0,0,0,0,0,0,0,0,0,0,0,0,0,0,0,0,0,0,0,0,0,0,0,0,0,0,0,0,0,0,0,0,0,0,0,0,0,0,0,0,0,0,0,0,0,0,0,0,0,0,0,0,0,0,0,0,0,-7.15,-7.1502,0,-7.1643,-7.1644,-7.1646,-7.1583,-7.1579,-7.1576,-7.1572,-7.1711,-7.1718,-7.1725,0,0,0,0,0,0,0,0,0,0,0,0,0,-7.1164,-7.117,-7.15,-7.1502,-7.1504,-7.1642,-7.1644,-7.1646,-7.1583,-7.1579,-7.1575,-7.1571,-7.1709,-7.1717,-7.1725,0,0,0,0,0,0,0,0,0,0,0,0,0,-7.1308,-7.1173,-7.15,-7.1489,-7.149,-7.1642,-7.1645,-7.1647,-7.1584,-7.1579,-7.1574,-7.1569,-7.1706,-7.1716,-7.1726,-7.1895,0,0,-7.1758,-7.1763,0,0,0,0,0,0,0,0,-7.13,-7.1321,-7.1489,-7.149,-7.1491,-7.159,-7.1577,-7.173,-7.1586,-7.1548,-7.1572,-7.1566,-7.1674,-7.1687,-7.1725,-7.1902,-7.1908,-7.1759,-7.1765,-7.177,-7.1773,0,0,0,0,0,0,0,-7.129,-7.1314,-7.1556,-7.1491,-7.1493,-7.1474,-7.1489,-7.1605,-7.1638,-7.1551,-7.1547,-7.1565,-7.1674,-7.1715,-7.1728,-7.191,-7.1759,-7.1768,-7.1775,-7.1779,-7.2229,-7.2235,0,0,0,0,0,0,-7.1282,-7.1306,-7.1552,-7.156,-7.1381,-7.1484,-7.1501,-7.1563,-7.1637,-7.1644,-7.1569,-7.1561,-7.17,-7.1716,-7.1732,-7.1934,-7.177,-7.178,-7.1786,-7.2224,-7.2231,-7.2237,0,0,0,0,0,0,-7.1275,-7.1304,-7.1546,-7.1432,-7.1462,-7.1496,-7.1566,-7.1569,-7.161,-7.1651,-7.1656,-7.1606,-7.1696,-7.1718,-7.1855,-7.1938,-7.1784,-7.1794,-7.2217,-7.2226,-7.2234,-7.2339,0,0,0,0,0,0,-7.1265,-7.1302,-7.1369,-7.1435,-7.1468,-7.167,-7.1571,-7.1575,-7.1629,-7.162,-7.1687,-7.1693,-7.1694,-7.184,-7.1866,-7.1949,-7.1802,-7.221,-7.2221,-7.2231,-7.2328,-7.235,-7.2369,0,0,0,0,0,-7.1254,-7.1392,-7.1373,-7.1403,-7.1553,-7.1675,-7.1693,-7.1694,-7.1636,-7.1702,-7.1728,-7.1691,-7.1925,-7.1855,-7.1883,-7.1971,-7.2204,-7.2218,-7.223,-7.2319,-7.2346,-7.2368,0,0,0,0,0,0,-7.1333,-7.14,-7.138,-7.1544,-7.1604,-7.1664,-7.1747,-7.1723,-7.1799,-7.1787,-7.1782,-7.1798,-7.194,-7.1969,-7.189,-7.2137,-7.2055,-7.2074,-7.2113,-7.2139,-7.2159,-7.2148,-7.1811,0,0,0,0,0,-7.137,-7.1466,-7.1518,-7.1658,-7.1689,-7.1713,-7.1766,-7.1762,-7.1823,-7.1847,-7.1883,-7.1942,-7.2028,-7.2085,-7.2167,-7.2332,-7.2344,-7.2406,-7.2426,-7.2443,-7.2459,-7.2546,-7.2574,-7.2279,-7.2279,-7.2279,0,0,-7.1447,-7.1495,-7.1556,-7.1675,-7.1721,-7.1817,-7.1735,-7.1841,-7.1911,-7.1862,-7.1995,-7.2023,-7.2087,-7.2239,-7.2308,-7.2268,-7.2543,-7.2459,-7.2472,-7.2479,-7.2562,-7.259,-7.2615,-7.2288,-7.2286,-7.2285,0,0,-7.1636,-7.1683,-7.1804,-7.1852,-7.1923,-7.1938,-7.1967,-7.203,-7.2048,-7.2181,-7.2146,-7.2228,-7.2377,-7.2424,-7.2468,-7.2672,-7.264,-7.2699,-7.2804,-7.2889,-7.2913,-7.2933,-7.3005,-7.303,-7.2715,-7.2715,-7.2716,0,-7.1721,-7.1868,-7.1868,-7.1977,-7.2029,-7.1991,-7.2112,-7.2157,-7.2251,-7.2286,-7.2241,-7.2427,-7.2467,-7.2629,-7.2678,-7.2715,-7.2746,-7.2691,-7.291,-7.293,-7.2949,-7.3017,-7.3044,-7.2722,-7.2721,-7.2721,-7.272,0,-7.1969,-7.2071,-7.2159,-7.2253,-7.2315,-7.2429,-7.2443,-7.2505,-7.2495,-7.2513,-7.2647,-7.2695,-7.2785,-7.2823,-7.2813,-7.2982,-7.2955,-7.291,-7.2828,-7.2984,-7.3048,-7.3074,-7.2732,-7.2729,-7.2727,-7.2725,0,0,-7.2213,-7.2305,-7.2337,-7.2378,-7.2453,-7.2531,-7.2641,-7.2731,-7.2784,-7.2849,-7.294,-7.3066,-7.3025,-7.3074,-7.3068,-7.3143,-7.33,-7.3089,-7.309,-7.3125,-7.3487,-7.352,-7.355,-7.3279,-7.3284,-7.3288,-7.3481,0,-7.2407,-7.2604,-7.2606,-7.2786,-7.2879,-7.2843,-7.2938,-7.2993,-7.3013,-7.3092,-7.3112,-7.3201,-7.3141,-7.317,-7.3242,-7.3266,-7.3372,-7.3252,-7.3361,-7.3365,-7.3346,-7.3584,-7.362,-7.38,-7.3506,-7.351,-7.3513,0,-7.266,-7.2735,-7.2925,-7.2985,-7.3024,-7.3111,-7.3192,-7.3269,-7.3329,-7.3337,-7.3392,-7.3375,-7.3484,-7.3398,-7.3547,-7.3465,-7.3509,-7.3527,-7.3534,-7.3544,-7.3448,-7.3599,-7.3857,-7.3884,-7.3553,-7.355,-7.3547,0,-7.2817,-7.2965,-7.3098,-7.3134,-7.3208,-7.3269,-7.3302,-7.3357,-7.3411,-7.3481,-7.3515,-7.3596,-7.364,-7.3702,-7.3706,-7.3644,-7.3855,-7.377,-7.3863,-7.3863,-7.3909,-7.3906,-7.4177,-7.3939,-7.3939,-7.3938,-7.3938,0,-7.3033,-7.315,-7.3169,-7.3251,-7.338,-7.338,-7.3506,-7.3533,-7.3582,-7.3666,-7.3639,-7.3717,-7.3718,-7.3797,-7.38,-7.3921,-7.3941,-7.3949,-7.3949,-7.3952,-7.3951,-7.398,-7.3968,-7.3945,-7.3944,-7.3942,-7.3941,0,-7.3231,-7.3249,-7.3391,-7.3449,-7.3466,-7.3558,-7.3607,-7.3682,-7.3699,-7.3805,-7.3829,-7.3855,-7.3946,-7.3956,-7.4062,-7.4064,-7.421,-7.4196,-7.4191,-7.4188,-7.428,-7.4271,-7.4579,-7.4619,-7.4356,-7.4358,-7.436,0,-7.3367,-7.3457,-7.3525,-7.358,-7.3617,-7.3706,-7.3761,-7.3763,-7.382,-7.3894,-7.396,-7.4049,-7.4121,-7.4268,-7.4294,-7.4374,-7.4361,-7.4464,-7.4373,-7.4372,-7.4361,-7.4356,-7.4363,-7.4481,-7.4484,-7.4486,-7.4488,0,-7.3607,-7.3611,-7.3692,-7.3777,-7.3843,-7.3909,-7.397,-7.4016,-7.4025,-7.409,-7.4185,-7.424,-7.4349,-7.4437,-7.4515,-7.4545,-7.4518,-7.4517,-7.4542,-7.4546,-7.4539,-7.4542,-7.4238,-7.4509,-7.4507,-7.4506,-7.4505,-7.4504,-7.3777,-7.3854,-7.3914,-7.4005,-7.4052,-7.411,-7.4183,-7.421,-7.4289,-7.4379,-7.4375,-7.4478,-7.4532,-7.4635,-7.4672,-7.475,-7.4716,-7.4753,-7.4762,-7.4771,-7.478,-7.4527,-7.4764,-7.4764,-7.4763,-7.4763,-7.4762,0,-7.4014,-7.4051,-7.4134,-7.4222,-7.4293,-7.4263,-7.4329,-7.4389,-7.4481,-7.4536,-7.4607,-7.4714,-7.4798,-7.4831,-7.4912,-7.4969,-7.4958,-7.499,-7.4986,-7.4993,-7.4807,-7.4776,-7.4998,-7.4997,-7.4997,-7.4997,-7.4997,-7.4997,-7.4146,-7.4275,-7.4286,-7.4436,-7.447,-7.4574,-7.4614,-7.4665,-7.4709,-7.483,-7.4902,-7.4923,-7.4967,-7.5052,-7.5127,-7.5134,-7.5165,-7.5202,-7.5204,-7.503,-7.5006,-7.4983,-7.4954,-7.5209,-7.521,-7.5383,-7.5384,-7.5386]}]]